sat.trackr.live / text

‹ back to catalog

STARLINK-5854

NORAD 55923 · 2023-037K

PAYLOAD ACTIVE UNKNOWN

§ Identity

Operator
Country
US
Launch date
2023-03-17
Launch site
AFWTR
Launch vehicle
Mass (kg)
RCS (m²)

Purposes: comms

External: N2YO · Heavens-Above · Gunter

§ Orbital elements

Epoch: 2026-09-20T04:54:41.127552Z

Period
96.11 min
Inclination
70.0003°
Eccentricity
0.0002841
Mean motion
14.98332818 rev/d
Perigee alt
570.1 km
Apogee alt
574.0 km
Semi-major
6,950.2 km
B*
6.9772e-5
RAAN
174.0147°
Arg perigee
268.3463°
Mean anomaly
91.7371°
Rev number
19,262

§ Raw data

STARLINK-58541 55923U 23037K   26263.20464268  .00000740  00000+0  69772-4 0  99952 55923  70.0003 174.0147 0002841 268.3463  91.7371 14.98332818192622

JSON: /api/v1/satellites/55923 · /tle

For live sub-satellite position, see the globe view (requires WebGL).

§ Visibility from observer

Set your observer location to see the next 7 days of passes ≥ 10°. The values pass through the URL so the page stays shareable.

No JS? Fill the form by hand. The geolocation button needs JavaScript.